Flag for United Kingdom Weather past 2 weeks in Taunton, England, United Kingdom

Now
60 °F

Cool.


Feels Like: 60 °F
Forecast: 54 / 66 °F
Wind: 16 mph from South

Location: Dunkeswell Aerodrome

Current Time: Aug 5, 2015 at 2:26:18 PM

Latest Report: Aug 5, 2015 at 1:00 PM


Visibility: 8 mi

Pressure: 29.86 "Hg

Humidity: 90%

Dew point: 57 °F

Location of TauntonLocation

Historic Weather in Taunton — Graph

°F

Taunton temperature yesterday

Maximum temperature yesterday: 63 °F (at 3:00 PM)
Minimum temperature yesterday: 52 °F (at 1:00 AM)
Average temperature yesterday: 57 °F

Past Weeks' High & Low Weather Summary

 TemperatureHumidityPressure
High70 °F (Jul 21, 1:00 PM)100% (Jul 24, 5:00 AM)30.18 "Hg (Jul 24, 5:00 AM)
Low44 °F (Jul 31, 6:00 AM)45% (Jul 25, 5:00 PM)29.44 "Hg (Jul 26, 4:00 PM)
Average56 °F82%29.92 "Hg
* Reported Jul 21 1:00 PM — Aug 5 1:00 PM, Taunton, Weather by CustomWeather, © 2015

Note: Actual official high and low records may vary slightly from our data, if they occured in-between our weather recording intervals... More about our weather records

Advertising

Taunton weather history for previous 24 hours

 ConditionsComfort  
Time TempWeatherWind HumidityBarometerVisibility
1:00 PM
Wed, Aug 5
60 °FCool.16 mph90%29.86 "Hg8 mi
12:00 PM60 °FCool.13 mph89%29.87 "Hg16 mi
11:00 AM58 °FCool.16 mph91%29.90 "Hg9 mi
10:00 AM59 °FCool.15 mph90%29.90 "Hg11 mi
9:00 AM57 °FDrizzle. Cloudy.13 mph95%29.91 "Hg7 mi
8:00 AM56 °FCool.14 mph96%29.91 "Hg7 mi
7:00 AM55 °FCool.12 mph99%29.92 "Hg6 mi
6:00 AM54 °FDrizzle. Cloudy.7 mph99%29.92 "Hg4 mi
3:00 AM53 °FRain showers. Overcast.8 mph94%29.96 "Hg8 mi
2:00 AM54 °FRain showers. Overcast.9 mph88%29.96 "Hg6 mi
1:00 AM55 °FRain showers. Overcast.8 mph83%29.97 "Hg14 mi
12:00 AM55 °FRain showers. Overcast.9 mph89%29.96 "Hg9 mi
11:00 PM
Tue, Aug 4
56 °FCool.9 mph82%29.98 "Hg9 mi
9:00 PM56 °FCool.8 mph76%29.97 "Hg9 mi
8:00 PM58 °FCool.12 mph71%29.97 "Hg11 mi
7:00 PM59 °FCool.10 mph69%29.95 "Hg10 mi
6:00 PM61 °FCool.13 mph63%29.95 "Hg11 mi
5:00 PM62 °FMild.13 mph60%29.94 "Hg12 mi
4:00 PM62 °FMild.12 mph62%29.94 "Hg14 mi
3:00 PM63 °FMild.10 mph57%29.93 "Hg11 mi
2:00 PM62 °FCool.12 mph64%29.93 "Hg11 mi
Weather by CustomWeather, © 2015

See weather overviewHow to use our weather pages